Wind_Speed
25 25 25 25 24 24 25 25 25 25 25 25 25 26 26 27 27 27 27 27 28 28 27 27 27 27 28 28 28 29 29 30 30 30 29 29 29 30 30 31 31 32 32
25 26 26 26 26 25 26 26 27 27 27 27 27 28 28 28 28 28 28 28 28 28 27 27 27 28 28 28 28 29 29 30 30 30 31 31 31 31 32 32 33 33 33
28 26 27 27 27 27 27 27 28 28 29 29 29 29 29 29 29 29 29 28 28 28 28 28 28 29 29 29 29 29 30 30 30 31 31 32 32 33 33 33 34 34 35
31 29 28 28 28 28 28 28 28 29 30 30 30 31 30 30 30 29 30 30 30 30 30 30 30 30 30 30 30 31 31 31 32 32 33 33 34 34 34 35 36 36 37
32 32 31 30 29 30 30 30 30 30 31 32 32 32 32 31 30 30 30 30 30 30 30 31 31 31 32 32 32 33 32 33 33 34 34 35 35 36 36 36 37 38 38
33 32 31 31 31 31 32 32 32 32 33 33 33 33 32 32 31 31 31 31 31 32 31 31 32 33 33 34 34 34 35 35 35 35 36 37 37 38 38 38 39 40 40
34 34 32 33 33 33 33 33 33 33 33 32 32 32 33 32 32 33 33 33 33 33 33 34 34 35 35 36 36 37 37 38 38 38 38 38 39 40 40 40 40 41 41
34 36 35 34 33 33 33 32 32 32 32 31 31 32 33 34 34 34 35 35 35 36 36 37 37 38 38 38 39 39 40 40 40 40 41 41 41 41 42 42 42 43 43
35 36 38 35 34 35 34 33 32 32 32 33 33 33 34 35 35 36 36 37 38 38 39 40 40 40 41 41 41 42 42 42 42 42 43 43 44 44 44 45 45 45 44
36 37 38 37 35 35 35 34 35 35 35 35 36 36 36 36 37 37 38 39 40 41 41 42 42 43 43 44 44 44 44 44 45 45 46 46 46 47 47 47 48 48 47
36 36 37 39 37 36 36 36 36 36 37 37 38 38 39 39 40 40 40 41 42 43 43 44 44 45 45 46 46 46 47 47 47 48 48 49 49 49 50 50 50 50 49
37 37 38 39 39 39 38 37 37 37 38 39 40 40 40 41 41 42 42 42 43 44 45 46 47 47 48 48 48 49 49 49 49 50 51 51 52 52 52 52 51 51 50
37 38 39 39 39 40 40 40 39 40 41 41 41 41 42 42 43 44 44 45 45 45 46 48 49 49 49 49 50 50 51 51 52 52 52 52 53 53 53 53 52 51 51
37 38 38 38 38 39 40 40 41 42 42 42 42 43 43 45 45 46 46 47 47 48 48 49 50 51 51 52 52 52 52 53 53 53 53 53 53 53 53 52 52 51 51
38 39 39 39 39 39 40 41 42 42 43 43 44 45 46 47 47 48 49 49 50 50 50 51 52 52 52 52 53 54 54 53 53 53 53 53 53 53 53 52 51 51 51
38 38 39 40 41 41 41 42 43 43 44 45 46 47 48 48 49 50 51 51 52 52 52 52 52 52 52 53 53 53 53 53 53 53 54 54 54 53 53 52 52 51 50
38 39 39 40 41 41 42 43 44 45 45 46 47 48 49 49 50 51 52 52 53 53 53 52 53 53 53 53 53 54 54 54 54 54 54 54 53 53 53 52 51 51 51
40 40 41 41 42 43 43 44 45 46 46 47 48 48 49 50 50 51 52 52 53 53 53 52 52 52 52 53 53 53 53 53 53 53 53 54 53 52 52 52 52 51 51
41 42 42 43 43 44 44 45 46 47 48 49 49 49 49 49 50 50 51 51 52 52 52 52 51 51 51 51 51 51 51 52 52 52 53 52 51 51 51 51 51 51 50
42 42 43 43 44 44 44 45 46 47 48 49 49 49 49 49 50 50 50 51 51 51 51 51 51 51 51 51 51 50 51 51 51 51 50 50 49 50 50 50 49 49 49
42 43 43 43 44 44 44 45 45 46 47 48 48 49 49 50 51 50 50 50 51 51 51 51 51 51 51 51 50 50 50 50 50 49 49 49 48 49 48 48 48 48 48
43 43 44 44 44 45 46 46 46 46 46 47 47 48 49 50 50 50 50 51 50 50 51 51 51 51 51 51 50 49 49 48 48 48 48 48 48 48 48 47 47 47 47
44 44 45 45 45 46 46 47 47 46 46 46 47 48 49 49 49 50 50 50 50 50 51 51 50 51 50 50 50 49 48 47 47 47 46 46 47 46 47 47 46 46 47
45 45 45 45 46 46 47 47 47 47 47 47 48 48 49 49 49 49 50 50 50 50 51 51 51 51 50 50 49 48 48 47 47 47 46 46 46 46 46 47 47 47 47
45 46 46 46 46 47 47 48 48 48 48 48 49 49 50 50 50 51 51 50 50 50 51 51 51 50 50 49 48 48 47 46 46 46 46 46 46 45 45 46 47 47 47
45 46 46 46 47 47 48 49 49 49 49 50 50 50 50 51 51 51 51 51 51 51 51 50 50 49 49 48 47 46 46 46 46 45 46 46 46 45 44 44 46 46 45
Wind_Direction
258 260 261 261 264 268 270 272 273 275 278 279 281 284 286 287 287 287 287 288 288 288 287 287 287 287 288 288 289 290 290 290 290 289 289 289 288 287 285 283 283 283 284
257 261 262 263 266 269 270 273 274 275 277 279 281 284 286 287 287 288 288 287 287 287 286 286 287 287 288 289 290 291 291 291 290 289 288 288 288 287 285 283 282 283 284
257 261 265 266 268 270 272 274 275 276 278 279 281 283 285 285 286 287 287 287 286 286 286 286 286 287 288 289 290 291 291 290 290 289 289 289 288 288 286 283 283 284 284
259 262 266 269 269 270 272 274 275 277 278 280 282 283 284 284 285 285 286 286 286 286 286 286 286 287 287 288 289 290 290 290 289 289 289 289 288 289 287 285 283 284 285
261 264 266 269 270 270 272 274 275 277 278 280 281 282 283 283 283 284 285 286 285 286 286 286 286 286 287 288 289 290 290 290 289 288 288 288 288 288 288 286 285 284 285
261 263 266 268 270 272 273 274 276 278 279 280 281 281 281 281 283 284 285 285 285 286 285 285 285 286 287 287 288 289 290 290 290 289 288 287 287 287 287 286 285 284 284
259 261 265 267 270 271 272 274 276 278 280 281 281 281 281 280 282 284 284 284 285 285 285 285 286 286 286 287 287 288 288 289 289 288 288 287 287 287 286 286 286 284 283
261 261 265 268 271 272 272 275 277 278 278 280 281 281 280 281 282 284 284 285 285 285 285 285 286 286 286 287 287 287 288 288 287 287 287 287 286 286 286 286 285 284 283
264 267 268 269 269 271 273 274 277 277 278 280 281 281 281 281 281 283 284 285 285 285 285 285 285 286 286 286 286 286 286 287 287 287 286 286 286 286 286 286 285 284 283
269 270 270 269 270 271 273 275 275 277 278 279 281 282 282 283 282 282 283 284 285 285 284 284 284 285 285 286 286 285 285 285 286 286 286 285 286 285 286 285 284 284 282
269 270 269 269 271 272 274 276 278 278 279 280 281 282 283 282 282 283 283 284 285 285 285 284 284 284 285 285 285 285 285 285 285 285 285 285 285 285 285 285 284 283 282
270 270 270 273 274 275 276 277 278 280 280 281 281 281 282 283 283 283 284 284 285 285 285 285 285 285 285 284 284 285 285 285 285 285 285 285 286 286 285 285 284 283 281
272 274 275 277 276 277 277 277 278 280 280 281 281 281 282 283 283 283 284 284 285 285 285 286 286 285 285 285 285 285 285 284 285 285 285 285 285 285 285 285 284 282 281
272 274 276 276 277 277 278 278 279 280 281 281 283 283 283 283 284 284 284 284 284 285 286 286 285 285 285 284 284 285 285 285 285 285 285 285 285 285 286 285 284 283 281
272 273 275 276 277 279 279 279 281 281 281 282 283 284 285 285 285 286 286 286 286 285 285 285 285 285 285 284 285 285 285 285 285 285 285 285 285 285 285 285 283 282 280
271 273 275 277 278 279 281 281 282 282 282 283 284 284 285 285 286 286 287 287 287 287 286 286 286 286 285 285 285 286 285 285 285 285 286 286 286 286 285 284 283 282 281
272 273 275 277 278 279 280 281 283 283 283 284 285 285 285 286 286 286 287 287 287 288 288 287 287 287 286 286 286 286 286 286 286 286 286 286 286 285 284 283 283 282 281
273 274 276 277 279 281 282 282 283 284 285 285 285 287 287 287 286 286 287 287 287 288 288 288 288 288 287 287 287 287 287 286 287 287 287 287 286 285 284 284 283 282 282
274 276 278 279 280 281 282 283 284 285 285 286 286 287 288 288 287 288 288 289 289 289 289 288 289 288 289 289 288 288 287 287 287 287 287 287 286 285 285 284 283 282 281
276 278 280 281 281 282 283 284 285 285 286 287 287 288 288 288 288 288 289 289 289 289 289 289 289 289 290 289 289 289 289 289 289 289 288 287 286 286 285 284 283 281 280
277 279 280 281 282 283 284 285 285 286 287 287 288 288 288 289 289 289 289 289 289 289 289 289 289 289 290 289 289 289 289 289 289 289 288 288 287 286 286 285 284 282 281
278 279 280 281 282 283 284 285 286 287 287 288 288 289 289 289 289 290 290 289 290 290 290 289 289 290 290 289 289 289 289 289 288 288 288 287 287 286 286 285 284 283 282
278 279 281 282 283 283 284 285 286 287 287 288 289 289 289 289 290 290 290 290 290 291 290 290 290 290 289 289 289 288 288 288 288 288 288 288 287 287 286 285 284 283 283
279 280 281 282 283 284 285 285 286 287 288 289 289 289 289 289 289 289 290 290 291 291 291 290 290 289 289 289 288 288 288 288 287 287 287 287 287 287 287 286 285 285 285
280 281 282 283 284 284 285 286 287 288 288 288 289 289 289 289 289 289 289 289 290 290 290 290 290 289 288 288 288 288 289 289 288 288 288 288 287 287 287 287 287 286 286
281 282 283 284 285 285 286 287 287 288 288 288 288 288 288 288 288 289 289 288 289 289 289 290 290 289 288 287 287 287 288 288 289 289 289 288 288 288 287 287 288 287 287
Height
5827 5827 5828 5828 5829 5829 5829 5830 5829 5829 5829 5828 5828 5827 5826 5825 5824 5823 5822 5821 5820 5818 5817 5816 5815 5814 5813 5812 5811 5809 5808 5807 5806 5805 5803 5802 5801 5800 5799 5798 5797 5796 5796
5821 5822 5823 5823 5824 5824 5824 5824 5824 5824 5823 5823 5822 5822 5821 5820 5819 5817 5816 5815 5814 5813 5812 5810 5809 5808 5807 5806 5804 5803 5802 5801 5799 5798 5797 5795 5794 5793 5792 5791 5790 5789 5788
5816 5817 5818 5818 5818 5818 5819 5819 5819 5818 5818 5817 5817 5816 5815 5814 5813 5811 5810 5809 5808 5807 5806 5804 5803 5802 5801 5799 5798 5797 5795 5794 5792 5791 5790 5788 5787 5785 5784 5783 5782 5781 5780
5810 5811 5812 5813 5813 5813 5813 5813 5813 5812 5812 5811 5810 5810 5809 5808 5806 5805 5804 5803 5802 5801 5799 5798 5797 5795 5794 5793 5791 5790 5788 5787 5785 5784 5782 5781 5779 5778 5776 5775 5774 5773 5772
5804 5805 5806 5806 5806 5806 5806 5806 5806 5806 5805 5805 5804 5803 5802 5801 5800 5799 5798 5796 5795 5794 5793 5791 5790 5789 5787 5786 5784 5783 5781 5780 5778 5776 5775 5773 5772 5770 5768 5767 5766 5764 5763
5798 5799 5799 5800 5800 5800 5800 5800 5800 5799 5798 5798 5797 5796 5795 5794 5793 5792 5791 5790 5788 5787 5786 5784 5783 5782 5780 5779 5777 5775 5774 5772 5770 5769 5767 5765 5763 5762 5760 5758 5757 5756 5754
5791 5792 5792 5793 5793 5793 5793 5793 5793 5792 5791 5791 5790 5789 5788 5787 5786 5785 5784 5783 5781 5780 5778 5777 5776 5774 5772 5771 5769 5767 5765 5764 5762 5760 5758 5757 5755 5753 5751 5749 5747 5746 5745
5784 5784 5785 5786 5786 5786 5786 5785 5785 5785 5784 5783 5782 5782 5781 5781 5779 5778 5776 5775 5774 5772 5771 5769 5767 5766 5764 5762 5760 5758 5756 5754 5752 5751 5749 5747 5745 5743 5741 5739 5738 5736 5734
5776 5777 5778 5778 5778 5778 5778 5778 5777 5777 5776 5776 5775 5774 5773 5772 5772 5770 5768 5767 5765 5764 5762 5760 5758 5756 5755 5753 5751 5749 5746 5744 5742 5740 5738 5737 5735 5733 5731 5729 5727 5725 5724
5769 5769 5770 5770 5770 5770 5770 5769 5769 5769 5768 5767 5766 5765 5764 5763 5762 5761 5760 5758 5756 5754 5752 5750 5748 5746 5744 5742 5740 5738 5736 5734 5732 5730 5727 5725 5723 5721 5719 5717 5716 5714 5712
5761 5761 5761 5762 5762 5761 5761 5760 5760 5760 5759 5758 5757 5756 5754 5753 5752 5751 5750 5749 5747 5744 5742 5740 5738 5736 5733 5731 5729 5727 5725 5723 5720 5718 5716 5713 5711 5709 5707 5705 5703 5701 5699
5753 5753 5753 5753 5752 5752 5752 5751 5751 5750 5750 5749 5748 5746 5745 5743 5742 5741 5739 5738 5736 5734 5731 5729 5727 5725 5722 5720 5718 5715 5713 5710 5708 5706 5703 5701 5698 5696 5693 5691 5689 5687 5685
5745 5744 5744 5744 5743 5743 5743 5742 5742 5741 5740 5739 5738 5736 5734 5733 5731 5730 5728 5727 5725 5723 5720 5717 5715 5712 5710 5707 5705 5702 5700 5698 5695 5692 5690 5687 5684 5682 5679 5677 5675 5673 5671
5736 5735 5735 5735 5734 5734 5733 5732 5731 5731 5730 5729 5727 5725 5724 5722 5720 5718 5717 5715 5713 5711 5709 5706 5703 5700 5697 5695 5692 5689 5687 5684 5681 5679 5676 5673 5670 5668 5665 5662 5660 5658 5656
5727 5726 5726 5725 5725 5724 5723 5722 5721 5720 5719 5718 5716 5714 5713 5711 5709 5706 5704 5702 5701 5699 5697 5693 5690 5687 5684 5681 5678 5676 5673 5670 5668 5665 5662 5659 5656 5653 5650 5648 5646 5644 5642
5717 5716 5716 5715 5715 5714 5713 5712 5710 5709 5708 5706 5704 5703 5701 5699 5696 5694 5691 5689 5686 5685 5683 5680 5676 5673 5670 5667 5664 5662 5659 5656 5653 5651 5648 5645 5642 5639 5636 5633 5631 5629 5627
5706 5706 5706 5705 5704 5703 5702 5700 5699 5697 5696 5694 5692 5690 5688 5686 5684 5681 5679 5676 5673 5670 5668 5666 5662 5659 5656 5653 5650 5647 5644 5641 5638 5636 5633 5630 5627 5624 5621 5619 5617 5614 5613
5696 5696 5695 5694 5693 5691 5690 5689 5687 5686 5684 5682 5680 5678 5675 5673 5670 5668 5665 5662 5659 5656 5654 5651 5648 5644 5641 5638 5636 5633 5630 5627 5624 5621 5618 5615 5612 5609 5607 5604 5602 5600 5598
5686 5685 5683 5682 5681 5679 5678 5677 5675 5674 5672 5670 5667 5665 5662 5660 5657 5654 5651 5648 5645 5642 5639 5637 5634 5630 5627 5624 5622 5618 5615 5612 5609 5606 5603 5600 5597 5595 5592 5589 5587 5585 5583
5675 5673 5672 5670 5669 5667 5666 5664 5663 5661 5659 5657 5654 5652 5649 5646 5643 5640 5637 5634 5631 5628 5625 5622 5619 5616 5613 5610 5607 5604 5601 5598 5595 5592 5588 5586 5583 5580 5577 5575 5573 5570 5568
5663 5662 5660 5658 5657 5655 5654 5652 5650 5648 5646 5644 5641 5638 5635 5632 5629 5626 5624 5621 5618 5615 5611 5608 5605 5603 5599 5596 5594 5590 5588 5584 5581 5578 5575 5571 5569 5566 5563 5560 5558 5556 5554
5651 5650 5648 5647 5645 5643 5641 5639 5637 5635 5633 5630 5628 5625 5622 5619 5616 5613 5610 5607 5604 5601 5597 5594 5592 5589 5585 5582 5579 5576 5573 5571 5568 5565 5562 5558 5555 5552 5549 5546 5544 5542 5540
5639 5637 5636 5634 5632 5630 5628 5626 5624 5622 5620 5617 5614 5612 5609 5605 5602 5599 5596 5593 5590 5586 5583 5581 5578 5574 5571 5569 5566 5563 5559 5556 5554 5551 5548 5545 5541 5539 5535 5532 5530 5528 5526
5626 5625 5623 5622 5620 5617 5615 5613 5611 5609 5606 5604 5601 5598 5595 5592 5588 5585 5582 5579 5576 5572 5569 5566 5564 5560 5557 5554 5551 5548 5545 5543 5540 5536 5534 5532 5529 5526 5522 5519 5516 5514 5512
5613 5612 5610 5608 5606 5604 5601 5599 5597 5595 5593 5590 5587 5584 5581 5578 5575 5572 5569 5566 5562 5559 5555 5552 5549 5545 5542 5539 5536 5534 5531 5529 5527 5523 5520 5518 5516 5513 5510 5506 5503 5500 5497
5600 5599 5597 5595 5593 5591 5588 5586 5583 5582 5579 5577 5574 5570 5567 5564 5560 5557 5554 5551 5548 5545 5541 5538 5535 5531 5528 5525 5522 5520 5518 5515 5513 5511 5507 5505 5502 5499 5498 5494 5490 5486 5484